K5TCS Weather Reports


Display with metric or nautical units.
time (UTC)temp
F
wind
direction
speed
MPH
gust
MPH
rain 1hr
in
rain 24hr
in
rain mn
in
humidity
%
barometer
mb
20260504181036 65 293 7.0 15.0 0.00 0.04 0.00 26 1019.9
20260504180016 66 270 7.0 16.0 0.00 0.04 0.00 27 1020.0
20260504175036 66 293 5.0 13.0 0.00 0.04 0.00 28 1019.9
20260504174016 66 270 5.0 16.0 0.00 0.05 0.00 28 1020.2
20260504173016 65 270 4.0 11.0 0.00 0.05 0.00 29 1020.2
20260504172016 64 293 4.0 12.0 0.00 0.05 0.00 28 1019.6
20260504171016 65 338 2.0 9.0 0.00 0.05 0.00 31 1019.8
20260504151016 61 270 5.0 17.0 0.00 0.06 0.00 35 1020.3
20260504141018 59 203 2.0 10.0 0.00 0.07 0.00 40 1021.9
20260504081017 45 0.0 2.0 0.00 0.08 0.00 39 1022.1
20260504050016 47 0.0 5.0 0.00 0.09 0.09 42 1022.4
20260504045016 47 0.0 3.0 0.00 0.09 0.09 42 1022.6
20260504044016 47 0.0 2.0 0.00 0.09 0.09 43 1022.7
20260504043015 47 0.0 1.0 0.00 0.10 0.09 43 1022.8
20260504042015 47 0.0 3.0 0.00 0.10 0.09 44 1022.8
20260504041015 47 0.0 0.0 0.00 0.10 0.09 44 1022.2
20260504040015 48 0.0 1.0 0.00 0.10 0.09 45 1022.1
20260504035016 48 0.0 2.0 0.00 0.10 0.09 45 1022.6
20260504034018 48 0.0 3.0 0.00 0.10 0.09 47 1021.7
20260504033018 49 0.0 3.0 0.00 0.10 0.09 48 1022.2
20260504032017 51 0.0 0.0 0.00 0.10 0.09 48 1022.8
20260504031018 50 0.0 1.0 0.00 0.10 0.09 48 1021.5
20260504030017 50 0.0 2.0 0.00 0.10 0.09 49 1021.2
20260504025017 51 0.0 1.0 0.00 0.11 0.09 51 1021.5
20260504024018 52 0.0 2.0 0.00 0.11 0.09 53 1020.6
20260504023018 53 0.0 1.0 0.00 0.11 0.09 56 1021.3
20260504022038 55 0.0 1.0 0.00 0.11 0.09 55 1021.3
20260504021017 55 0.0 6.0 0.00 0.11 0.09 55 1020.6
20260504020017 56 0.0 3.0 0.00 0.11 0.09 55 1020.4
20260504015017 56 0.0 2.0 0.00 0.11 0.09 55 1020.7
20260504014017 57 203 1.0 4.0 0.00 0.11 0.09 53 1020.5
20260504013017 58 203 1.0 7.0 0.00 0.11 0.09 52 1020.5
20260504012017 58 203 1.0 4.0 0.00 0.11 0.09 53 1020.5
20260504011017 58 203 1.0 5.0 0.00 0.11 0.09 52 1020.7
20260504010017 59 203 2.0 5.0 0.00 0.11 0.09 52 1021.3
20260504005017 59 225 1.0 6.0 0.01 0.12 0.09 51 1021.4
20260504004017 59 203 2.0 6.0 0.01 0.12 0.09 51 1020.8
20260504003017 59 203 2.0 6.0 0.01 0.12 0.09 51 1020.9
20260504002017 59 203 3.0 11.0 0.01 0.12 0.09 51 1021.3
20260504001037 60 203 4.0 14.0 0.01 0.12 0.09 50 1021.9
20260504000017 60 225 4.0 13.0 0.01 0.12 0.09 51 1021.4
20260503235017 60 203 2.0 10.0 0.00 0.11 0.08 51 1022.0
20260503234017 60 203 2.0 10.0 0.00 0.12 0.08 50 1021.7
20260503233037 61 203 2.0 9.0 0.00 0.12 0.08 48 1022.1
20260503232037 61 203 2.0 11.0 0.00 0.12 0.08 48 1022.0
20260503231017 61 203 3.0 13.0 0.00 0.12 0.08 47 1022.1
20260503230017 62 203 2.0 10.0 0.00 0.12 0.08 46 1022.8
20260503225017 63 203 4.0 13.0 0.00 0.12 0.08 45 1022.8
20260503224017 62 203 3.0 11.0 0.00 0.12 0.08 47 1023.0
20260503223017 62 203 3.0 15.0 0.00 0.12 0.08 46 1023.1
20260503222017 61 203 5.0 16.0 0.00 0.12 0.08 46 1023.2
20260503221037 61 203 5.0 15.0 0.00 0.12 0.08 45 1023.2
20260503220016 61 203 6.0 14.0 0.01 0.12 0.08 46 1023.3
20260503215016 62 203 4.0 14.0 0.01 0.12 0.08 47 1023.2
20260503214016 63 203 1.0 10.0 0.01 0.12 0.08 46 1023.9
20260503213037 63 203 5.0 14.0 0.01 0.13 0.08 45 1023.5
20260503212016 63 180 4.0 13.0 0.01 0.13 0.08 47 1024.2
20260503211017 65 203 5.0 14.0 0.01 0.13 0.08 45 1025.0
20260503210017 65 203 6.0 13.0 0.01 0.12 0.07 45 1025.2
20260503205020 65 225 5.0 15.0 0.01 0.12 0.07 42 1025.4
20260503204016 67 225 3.0 14.0 0.01 0.12 0.07 41 1025.4
20260503203036 65 203 2.0 11.0 0.01 0.13 0.07 43 1025.4
20260503202036 64 225 2.0 11.0 0.01 0.13 0.07 42 1025.1
20260503201016 65 248 5.0 15.0 0.01 0.13 0.07 40 1026.0
20260503200036 66 225 4.0 11.0 0.00 0.12 0.06 42 1026.7
20260503195017 64 225 3.0 11.0 0.00 0.12 0.06 44 1025.8
20260503194016 63 225 4.0 13.0 0.00 0.12 0.06 41 1025.8
20260503193036 64 225 3.0 12.0 0.01 0.12 0.06 42 1026.1
20260503192016 64 0.0 0.0 0.01 0.13 0.06 43 1026.2
20260503191016 64 0.0 0.0 0.01 0.13 0.06 40 1026.4
20260503190037 63 0.0 0.0 0.01 0.13 0.06 42 1026.4
20260503185016 62 0.0 0.0 0.01 0.14 0.06 42 1026.4
20260503184016 61 0.0 0.0 0.02 0.14 0.06 43 1026.5
20260503183016 62 0.0 0.0 0.01 0.13 0.05 44 1027.0
20260503182017 62 0.0 0.0 0.01 0.13 0.05 44 1027.3